This is the latest recevied weather packets stored in our database for station/object KE5OYL. If no packets are shown the sender has not sent any weather packets the latest 10 day(s).
| Time | Temp. | Humidity | Pressure | Rain* | Wind** | Luminosity | Snow |
|---|---|---|---|---|---|---|---|
| 1787861247 | 36.67° C | 40% | 1014.8 hPa | 0 mm | - | 731 W/m² | - |
| 1787860947 | 36.11° C | 41% | 1014.6 hPa | 0 mm | - | 774 W/m² | - |
| 1787860641 | 37.22° C | 40% | 1014.8 hPa | 0 mm | - | 702 W/m² | - |
| 1787860336 | 36.67° C | 39% | 1014.7 hPa | 0 mm | - | 757 W/m² | - |
| 1787860031 | 36.67° C | 40% | 1014.7 hPa | 0 mm | - | 751 W/m² | - |
| 1787859721 | 36.67° C | 40% | 1014.9 hPa | 0 mm | - | 736 W/m² | - |
| 1787859421 | 37.22° C | 40% | 1015.1 hPa | 0 mm | - | 758 W/m² | - |
| 1787859116 | 36.11° C | 42% | 1015 hPa | 0 mm | - | 760 W/m² | - |
| 1787858813 | 36.11° C | 43% | 1015.1 hPa | 0 mm | - | 744 W/m² | - |
| 1787858508 | 36.67° C | 42% | 1015.2 hPa | 0 mm | - | 774 W/m² | - |
| 1787858207 | 36.67° C | 41% | 1015.2 hPa | 0 mm | - | 776 W/m² | - |
| 1787857903 | 36.67° C | 43% | 1015.2 hPa | 0 mm | - | 761 W/m² | - |
| 1787857599 | 36.67° C | 42% | 1015.3 hPa | 0 mm | - | 790 W/m² | - |
| 1787857293 | 36.11° C | 44% | 1015.5 hPa | 0 mm | - | 788 W/m² | - |
| 1787856992 | 35.56° C | 44% | 1015.4 hPa | 0 mm | - | 790 W/m² | - |
| 1787856692 | 35.56° C | 44% | 1015.6 hPa | 0 mm | - | 780 W/m² | - |
| 1787856392 | 36.67° C | 45% | 1015.7 hPa | 0 mm | - | 797 W/m² | - |
| 1787856087 | 35.56° C | 45% | 1015.5 hPa | 0 mm | - | 790 W/m² | - |
| 1787855782 | 35.56° C | 46% | 1015.8 hPa | 0 mm | - | 788 W/m² | - |
| 1787855477 | 35.56° C | 47% | 1015.6 hPa | 0 mm | - | 780 W/m² | - |
| 1787855172 | 35° C | 47% | 1015.8 hPa | 0 mm | - | 781 W/m² | - |
| 1787854868 | 35° C | 49% | 1015.8 hPa | 0 mm | - | 787 W/m² | - |
| 1787854567 | 35.56° C | 46% | 1015.9 hPa | 0 mm | - | 776 W/m² | - |
| 1787854262 | 35.56° C | 48% | 1015.8 hPa | 0 mm | - | 771 W/m² | - |
| 1787853957 | 35° C | 50% | 1015.9 hPa | 0 mm | - | 772 W/m² | - |
* Rain latest hour (hover to see other rain measurements)
** Current wind speed in m/s (hover to see current wind gust speed)